Delta Virtual Airport Information Service

Tel Aviv Ben Gurion International Airport

ICAO: LLBG Country: Israel
Latitude: 32.0114 Longitude: 34.8867
Latest Arrival : DLH690 (EDDF-LLBG) Latest Departure : ELY323 (LLBG-LFPG)


WX CaptureLIVE
Data provided by noaa.gov | Fetched at 22:55:58

METAR : LLBG 240320Z VRB02KT 8000 BKN004 20/18 Q1011 NOSIG

TAF : LLBG 232305Z 2400/2424 14004KT CAVOK BECMG 2401/2402 4000 BR SCT005 BKN010 TEMPO 2402/2405 0800 FG BKN003 BECMG 2407/2409 28010KT CAVOK BECMG 2415/2417 VRB04KT 9999 SCT018 PROB30 2418/2424 8000 RA FEW080TCU BKN100 TX30/2412Z TN20/2403Z


Runway Data for LLBG
Data provided by openaviationdata.com

Runway ID Mag Var Hdg Length Elevation Surface ILS Freq ILS Id ILS Slope
3 3 25° 5848 ft 135 ft Asphalt -- -- --
8 3 76° 11949 ft 135 ft Asphalt -- -- --
12 3 118° 10134 ft 135 ft Asphalt 110.3 BG 3
21 3 205° 5848 ft 135 ft Asphalt -- -- --
26 3 256° 11949 ft 135 ft Asphalt 108.7 BA 3
30 3 298° 10134 ft 135 ft Asphalt -- -- --

Tel Aviv Ben Gurion International Airport, Israel
Use only for reference purposes



Not for navigational purposes.